[[{"header":{"parameterUnit":"m.s-1","parameterCategory":1,"la1":30.2991,"la2":30.254,"lo1":-89.0895,"lo2":-89.0444,"dy":0.0017,"dx":0.0017,"nx":28,"ny":28,"refTime":"2024-08-08T21:00:00:Z","depth":0,"parameterNumber":2,"parameterNumberName":"U-component_of_WINDS"},"data":[0,0,0,0,0,0,0,0,0,0,0,0,0,0,0,0,0,0,0,0,0,0,0,0,0,0,0,0,0,0,0,0,0,0,0,0,0,0,0,0,0,0,0,0,0,0,0,0,0,0,0,0,0,0,0,0,0,0,0.0833,0.0835,0,0.0961,0.0963,0.0964,0.1045,0.1045,0.1046,0.1046,0.1181,0.1184,0.1187,0,0,0,0,0,0,0,0,0,0,0,0,0,0.0662,0.0665,0.0833,0.0835,0.0836,0.0961,0.0963,0.0965,0.1045,0.1045,0.1046,0.1046,0.118,0.1184,0.1188,0,0,0,0,0,0,0,0,0,0,0,0,0,0.0758,0.0665,0.0833,0.0891,0.0898,0.0961,0.0963,0.0965,0.1045,0.1045,0.1046,0.1047,0.1179,0.1184,0.1188,0.1204,0,0,0.1203,0.1205,0,0,0,0,0,0,0,0,0.0752,0.0764,0.0881,0.0887,0.0895,0.0988,0.0952,0.1045,0.1045,0.0989,0.1046,0.1047,0.1117,0.1126,0.1149,0.121,0.1216,0.1203,0.1206,0.1208,0.121,0,0,0,0,0,0,0,0.0745,0.0759,0.0884,0.0883,0.0891,0.0912,0.0927,0.097,0.1048,0.0994,0.1,0.1014,0.112,0.1144,0.1153,0.1218,0.1203,0.1207,0.121,0.1212,0.13,0.1299,0,0,0,0,0,0,0.0729,0.0753,0.088,0.0888,0.0824,0.0915,0.0931,0.0957,0.1047,0.1062,0.1013,0.1017,0.1136,0.1147,0.1158,0.1183,0.1208,0.1213,0.1215,0.13,0.13,0.1299,0,0,0,0,0,0,0.0725,0.074,0.0875,0.0822,0.0841,0.0917,0.0946,0.0959,0.0983,0.1062,0.1076,0.1023,0.1137,0.1151,0.1192,0.1189,0.1215,0.1219,0.1301,0.13,0.1299,0.1233,0,0,0,0,0,0,0.072,0.0738,0.0744,0.0821,0.0843,0.0905,0.0946,0.0961,0.0991,0.0997,0.1075,0.1089,0.1139,0.1184,0.1197,0.1196,0.1223,0.1302,0.1301,0.13,0.1236,0.123,0.1225,0,0,0,0,0,0.0713,0.072,0.0743,0.0758,0.0852,0.0905,0.0918,0.0974,0.099,0.0998,0.1048,0.1086,0.1187,0.1188,0.1202,0.1203,0.1302,0.1301,0.13,0.1238,0.1231,0.1225,0,0,0,0,0,0,0.0641,0.0732,0.0758,0.079,0.0839,0.0918,0.0929,0.0964,0.101,0.1015,0.1084,0.11,0.1134,0.1173,0.1172,0.1224,0.1249,0.1251,0.1197,0.1191,0.1186,0.1176,0.1227,0,0,0,0,0,0.0629,0.0663,0.0741,0.0762,0.0785,0.0852,0.0877,0.0916,0.097,0.0992,0.1045,0.1097,0.1141,0.1168,0.1212,0.1241,0.126,0.1249,0.1244,0.1239,0.124,0.1259,0.1255,0.1295,0.1295,0.1295,0,0,0.0604,0.0658,0.0675,0.0748,0.0791,0.0826,0.0869,0.0904,0.0932,0.0998,0.1039,0.108,0.1142,0.1177,0.1196,0.1211,0.1233,0.1237,0.1233,0.1237,0.1257,0.1253,0.125,0.1295,0.1295,0.1295,0,0,0.0577,0.062,0.0643,0.0684,0.0748,0.0793,0.0798,0.0872,0.0901,0.0943,0.0994,0.1028,0.1101,0.1144,0.1175,0.1163,0.1201,0.1176,0.1148,0.1166,0.1163,0.1161,0.1158,0.1156,0.1176,0.1176,0.1176,0,0.0539,0.0593,0.0651,0.0683,0.0714,0.0774,0.0798,0.0836,0.091,0.0931,0.0946,0.104,0.1086,0.1132,0.1129,0.1152,0.1161,0.1168,0.1158,0.1157,0.1155,0.1153,0.1152,0.1173,0.1173,0.1174,0.1174,0,0.0543,0.0579,0.059,0.066,0.0692,0.072,0.0783,0.0809,0.0845,0.0889,0.0932,0.0989,0.1046,0.106,0.1096,0.1111,0.1119,0.1145,0.1173,0.1147,0.1146,0.1146,0.1168,0.1169,0.117,0.1171,0,0,0.0475,0.0576,0.0579,0.0611,0.0685,0.0715,0.0746,0.0801,0.0822,0.0872,0.09,0.0961,0.0985,0.1021,0.1062,0.1077,0.1066,0.1103,0.1105,0.1095,0.1088,0.1068,0.1066,0.109,0.109,0.1091,0.1083,0,0.046,0.0517,0.057,0.0609,0.0644,0.0702,0.0729,0.0778,0.0819,0.0856,0.0903,0.0944,0.0973,0.0995,0.1013,0.1063,0.1066,0.1065,0.1119,0.112,0.1103,0.1066,0.1045,0.1035,0.1083,0.1083,0.1083,0,0.045,0.0496,0.0538,0.0608,0.0625,0.0648,0.0703,0.0737,0.0794,0.0823,0.0862,0.0905,0.0942,0.0964,0.1016,0.1014,0.104,0.1068,0.1069,0.1077,0.1101,0.1074,0.1033,0.1032,0.1083,0.1083,0.1083,0,0.0397,0.0469,0.0504,0.053,0.0613,0.0628,0.0664,0.0722,0.0751,0.0799,0.082,0.0871,0.09,0.094,0.0996,0.1007,0.1043,0.107,0.1069,0.1068,0.1076,0.1074,0.1039,0.109,0.109,0.109,0.109,0,0.0375,0.0399,0.0482,0.0503,0.0532,0.0593,0.062,0.0661,0.0711,0.0742,0.0795,0.0824,0.0896,0.0933,0.0978,0.1015,0.1027,0.1053,0.1065,0.1049,0.1045,0.1067,0.107,0.1089,0.1089,0.1089,0.1089,0,0.0322,0.0378,0.0419,0.0494,0.0514,0.0532,0.0597,0.062,0.0664,0.0703,0.0716,0.0786,0.0833,0.0892,0.0958,0.0988,0.1021,0.1038,0.1001,0.1008,0.1005,0.1005,0.0983,0.0984,0.1032,0.1031,0.1031,0,0.0304,0.0324,0.0401,0.0425,0.0458,0.0497,0.0527,0.0588,0.0618,0.0684,0.07,0.075,0.0794,0.0866,0.0924,0.0974,0.0994,0.0983,0.1002,0.0986,0.0995,0.0994,0.0997,0.0979,0.0978,0.0977,0.0977,0,0.0268,0.0295,0.0336,0.0386,0.0421,0.0464,0.051,0.0527,0.0598,0.0628,0.0676,0.071,0.0777,0.0827,0.0885,0.0923,0.0962,0.097,0.0973,0.0957,0.0935,0.0948,0.0989,0.097,0.0971,0.0971,0.0972,0.0972,0.0233,0.0253,0.031,0.0355,0.0395,0.0436,0.0462,0.0509,0.055,0.0608,0.0642,0.0689,0.0746,0.0828,0.0865,0.0903,0.0918,0.0922,0.0923,0.0923,0.0919,0.0928,0.0914,0.0914,0.0915,0.0915,0.0915,0,0.02,0.024,0.028,0.0341,0.0376,0.0408,0.046,0.0488,0.0528,0.0578,0.0619,0.0675,0.0723,0.0784,0.0837,0.0856,0.0875,0.0868,0.0868,0.0876,0.0902,0.0895,0.0852,0.0852,0.0852,0.0852,0.0852,0.0852,0.0187,0.0223,0.0257,0.0314,0.0354,0.0399,0.0427,0.0466,0.0505,0.0564,0.0605,0.0643,0.0698,0.0755,0.0802,0.0819,0.0836,0.0824,0.0846,0.0869,0.0875,0.088,0.0873,0.0827,0.0827,0.0818,0.0817,0.0817]},{"header":{"parameterUnit":"m.s-1","parameterCategory":1,"la1":30.2991,"la2":30.254,"lo1":-89.0895,"lo2":-89.0444,"dy":0.0017,"dx":0.0017,"nx":28,"ny":28,"refTime":"2024-08-08T21:00:00:Z","depth":0,"parameterNumber":3,"parameterNumberName":"V-component_of_WINDS"},"data":[0,0,0,0,0,0,0,0,0,0,0,0,0,0,0,0,0,0,0,0,0,0,0,0,0,0,0,0,0,0,0,0,0,0,0,0,0,0,0,0,0,0,0,0,0,0,0,0,0,0,0,0,0,0,0,0,0,0,2.7924,2.7925,0,2.8004,2.8005,2.8006,2.8048,2.8048,2.8048,2.8048,2.8126,2.8128,2.813,0,0,0,0,0,0,0,0,0,0,0,0,0,2.78,2.7802,2.7924,2.7925,2.7926,2.8004,2.8005,2.8006,2.8048,2.8048,2.8048,2.8048,2.8125,2.8128,2.813,0,0,0,0,0,0,0,0,0,0,0,0,0,2.7864,2.7803,2.7924,2.7956,2.796,2.8004,2.8005,2.8006,2.8048,2.8048,2.8048,2.8048,2.8124,2.8127,2.813,2.8146,0,0,2.8139,2.8141,0,0,0,0,0,0,0,0,2.7861,2.7869,2.7951,2.7954,2.7958,2.8016,2.799,2.8053,2.8048,2.8014,2.8048,2.8048,2.8089,2.8095,2.811,2.815,2.8153,2.814,2.8141,2.8143,2.8144,0,0,0,0,0,0,0,2.7856,2.7866,2.7955,2.7952,2.7956,2.7965,2.7974,2.8002,2.805,2.8017,2.8021,2.803,2.8091,2.8107,2.8112,2.8154,2.814,2.8142,2.8144,2.8145,2.8208,2.8208,0,0,0,0,0,0,2.7847,2.7862,2.7953,2.7958,2.7909,2.7967,2.7977,2.7997,2.805,2.8058,2.803,2.8031,2.8101,2.8108,2.8115,2.8135,2.8143,2.8146,2.8147,2.8208,2.8208,2.8208,0,0,0,0,0,0,2.7845,2.7855,2.795,2.7911,2.7923,2.7969,2.7991,2.7999,2.8015,2.8059,2.8067,2.8037,2.8102,2.811,2.8138,2.8138,2.8147,2.815,2.8208,2.8208,2.8208,2.8177,0,0,0,0,0,0,2.7841,2.7854,2.7862,2.7911,2.7925,2.7973,2.7991,2.8,2.802,2.8023,2.8068,2.8076,2.8103,2.8133,2.8141,2.8142,2.8152,2.8209,2.8208,2.8208,2.8178,2.8175,2.8173,0,0,0,0,0,2.7836,2.785,2.7863,2.7873,2.7937,2.7974,2.7982,2.8014,2.802,2.8028,2.8055,2.8074,2.8137,2.8135,2.8144,2.8147,2.8209,2.8208,2.8208,2.8179,2.8176,2.8173,0,0,0,0,0,0,2.78,2.7857,2.7872,2.7902,2.7933,2.7981,2.7991,2.801,2.8038,2.804,2.8077,2.8086,2.811,2.8131,2.8129,2.8163,2.8174,2.8176,2.8149,2.8147,2.8144,2.8138,2.8154,0,0,0,0,0,2.7796,2.7822,2.787,2.7892,2.7907,2.7946,2.7963,2.7985,2.8017,2.803,2.806,2.809,2.8116,2.8132,2.8159,2.8181,2.819,2.8187,2.8184,2.8182,2.8183,2.8193,2.8192,2.8207,2.8207,2.8207,0,0,2.7787,2.7821,2.7836,2.7885,2.7912,2.7936,2.7957,2.7982,2.8,2.8034,2.8061,2.8084,2.8119,2.8143,2.8155,2.8161,2.8181,2.8182,2.818,2.8182,2.8193,2.8191,2.819,2.8207,2.8207,2.8207,0,0,2.7783,2.7813,2.7833,2.7859,2.7898,2.7924,2.7928,2.7973,2.7989,2.8018,2.8043,2.8063,2.8108,2.8131,2.8149,2.8149,2.8167,2.8157,2.8145,2.8155,2.8153,2.8152,2.8151,2.815,2.8157,2.8157,2.8157,0,2.7767,2.7807,2.7841,2.7865,2.7884,2.7916,2.7935,2.7957,2.8003,2.8015,2.8022,2.8077,2.8103,2.8131,2.8131,2.8145,2.8149,2.8152,2.8151,2.815,2.815,2.8149,2.8148,2.8156,2.8156,2.8156,2.8156,0,2.7783,2.781,2.7821,2.7865,2.7886,2.7907,2.7942,2.7958,2.7977,2.8001,2.8027,2.8059,2.8091,2.8099,2.8118,2.8129,2.8132,2.8144,2.8156,2.8147,2.8146,2.8146,2.8154,2.8154,2.8155,2.8155,0,0,2.7762,2.7822,2.7825,2.7844,2.7888,2.7908,2.7929,2.7961,2.7974,2.8003,2.802,2.8055,2.8066,2.8086,2.8107,2.8115,2.8111,2.8126,2.8128,2.8121,2.8123,2.8113,2.8112,2.8123,2.8123,2.8123,2.8119,0,2.7763,2.7805,2.7834,2.7862,2.7886,2.7914,2.7932,2.7959,2.7981,2.8002,2.8026,2.805,2.8063,2.8075,2.8085,2.811,2.8112,2.811,2.8137,2.8137,2.8127,2.8112,2.8102,2.8097,2.8119,2.8119,2.8119,0,2.7772,2.78,2.7831,2.787,2.788,2.7896,2.7926,2.7947,2.7977,2.7992,2.8013,2.8034,2.8054,2.8063,2.809,2.8089,2.8101,2.8114,2.8114,2.8118,2.8128,2.8114,2.8097,2.8096,2.812,2.812,2.812,0,2.7751,2.7796,2.782,2.7835,2.7882,2.7891,2.7911,2.7941,2.7958,2.7983,2.7994,2.8021,2.8036,2.8055,2.8082,2.8086,2.8105,2.8117,2.8116,2.8115,2.8119,2.8119,2.8103,2.8128,2.8128,2.8128,2.8128,0,2.775,2.7767,2.7811,2.7826,2.7844,2.7876,2.7894,2.7915,2.7941,2.7958,2.7984,2.7999,2.8034,2.8053,2.8073,2.8091,2.8098,2.8109,2.8114,2.8107,2.8105,2.8115,2.8116,2.8128,2.8128,2.8128,2.8128,0,2.773,2.7761,2.7788,2.7829,2.7839,2.7851,2.7885,2.7898,2.792,2.7942,2.7948,2.7983,2.8005,2.8034,2.8066,2.808,2.8095,2.8103,2.8085,2.8088,2.8085,2.8084,2.8075,2.8074,2.81,2.81,2.8099,0,2.7728,2.7742,2.7783,2.7797,2.7815,2.7837,2.7853,2.7884,2.79,2.7933,2.7942,2.7967,2.7988,2.8023,2.805,2.8073,2.8082,2.8077,2.8086,2.8076,2.808,2.8079,2.8079,2.8075,2.8074,2.8074,2.8074,0,2.7719,2.7732,2.7756,2.7783,2.7802,2.7825,2.7849,2.7858,2.7893,2.7909,2.7933,2.7949,2.7981,2.8005,2.8031,2.8049,2.8066,2.807,2.8071,2.8063,2.8051,2.8056,2.8078,2.8071,2.8071,2.8071,2.8071,2.8071,2.7707,2.7719,2.775,2.7774,2.7795,2.7816,2.783,2.7853,2.7874,2.7902,2.7918,2.7941,2.7967,2.8005,2.8021,2.8038,2.8045,2.8046,2.8046,2.8046,2.8043,2.8049,2.8043,2.8043,2.8043,2.8043,2.8043,0,2.7698,2.7718,2.774,2.7773,2.779,2.7805,2.7832,2.7845,2.7865,2.7889,2.7909,2.7934,2.7956,2.7983,2.8007,2.8014,2.8022,2.8019,2.8019,2.8022,2.8037,2.8033,2.8012,2.8012,2.8012,2.8012,2.8012,2.8012,2.7696,2.7717,2.7733,2.7763,2.7783,2.7806,2.7819,2.7837,2.7856,2.7883,2.7902,2.792,2.7944,2.7968,2.7988,2.7995,2.8002,2.7996,2.8005,2.8018,2.8021,2.8024,2.8021,2.7997,2.7997,2.7989,2.7989,2.7989]}]]